Jackson, MS

2:46 PM CDT on April 29, 2017 (GMT -0500)
Jackson-Evers International

Weather History for KJAN - June, 2013

Change the Weather History Date:

Sunday, June 16, 2013

  Actual Average Record
Temperature  
Mean Temperature 81 °F 79 °F  
Max Temperature 91 °F 90 °F 101 °F (1911)
Min Temperature 71 °F 69 °F 51 °F (1933)
Degree Days  
Heating Degree Days 0 0  
Month to date heating degree days 0 0  
Since 1 June heating degree days 0 0  
Since 1 July heating degree days 2309 2391  
Cooling Degree Days 16 14  
Month to date cooling degree days 223 206  
Year to date cooling degree days 541 564  
Since 1 June cooling degree days 223 206  
Growing Degree Days 31 (Base 50)    
Moisture  
Dew Point 71 °F    
Average Humidity 73    
Maximum Humidity 93    
Minimum Humidity 52    
Precipitation  
Precipitation 0.01 in 0.13 in 3.21 in (1982)
Month to date precipitation 4.13 2.10  
Year to date precipitation 37.19 26.21  
Sea Level Pressure  
Sea Level Pressure 30.00 in    
Wind  
Wind Speed 4 mph (SSE)    
Max Wind Speed 13 mph    
Max Gust Speed 16 mph    
Visibility 9 miles    
Events      
T = Trace of Precipitation, MM = Missing Value Source: NWS Daily Summary

Daily Weather History Graph

Daily Weather History Graph

Search for Another Location

Airport or City:

Trip Planner

Search our weather history database for the weather conditions in past years. The results will help you decide how hot, cold, wet, or windy it might be!

Date:

Astronomy

Jun. 16, 2013 Rise Set
Actual Time 5:53 AM CDT 8:09 PM CDT
Civil Twilight 5:24 AM CDT 8:37 PM CDT
Nautical Twilight 4:50 AM CDT 9:12 PM CDT
Astronomical Twilight 4:12 AM CDT 9:49 PM CDT
Moon 1:05 PM CDT (6/16) 12:36 AM CDT (6/16)
Length of Visible Light 15h 12m
Length of Day
14h 15m
Waxing Crescent, 50% of the Moon is Illuminated
Jun 16
Waxing Crescent
Jun 16
First Quarter
Jun 23
Full
Jun 29
Last Quarter
Jul 8
New

Hourly Weather History & Observations

Time (CDT) Temp. Heat Index Dew Point Humidity Pressure Visibility Wind Dir Wind Speed Gust Speed Precip Events Conditions
12:54 AM 73.9 °F - 68.0 °F 82% 30.00 in 10.0 mi SSE 6.9 mph - N/A   Clear
1:54 AM 73.9 °F - 69.1 °F 85% 29.99 in 10.0 mi SSE 6.9 mph - N/A   Clear
2:54 AM 73.9 °F - 69.1 °F 85% 29.99 in 9.0 mi SSE 3.5 mph - N/A   Clear
3:54 AM 73.9 °F - 69.1 °F 85% 29.98 in 8.0 mi Calm Calm - N/A   Clear
4:54 AM 72.0 °F - 69.1 °F 91% 30.00 in 7.0 mi Calm Calm - N/A   Clear
5:54 AM 72.0 °F - 69.1 °F 91% 30.01 in 5.0 mi Calm Calm - N/A   Clear
6:54 AM 73.9 °F - 71.1 °F 91% 30.02 in 5.0 mi Calm Calm - N/A   Partly Cloudy
7:54 AM 77.0 °F - 72.0 °F 84% 30.04 in 6.0 mi SSE 5.8 mph - N/A   Haze
8:54 AM 79.0 °F - 73.0 °F 82% 30.06 in 7.0 mi South 5.8 mph - N/A   Clear
9:54 AM 84.0 °F 91.2 °F 73.9 °F 72% 30.04 in 10.0 mi SSE 4.6 mph - N/A   Clear
10:54 AM 86.0 °F 91.5 °F 71.1 °F 61% 30.04 in 10.0 mi South 9.2 mph - N/A   Clear
11:54 AM 87.1 °F 92.0 °F 70.0 °F 57% 30.03 in 10.0 mi South 6.9 mph - N/A   Clear
12:54 PM 89.1 °F 95.0 °F 71.1 °F 55% 30.01 in 10.0 mi Variable 5.8 mph - N/A   Partly Cloudy
1:54 PM 89.1 °F 95.0 °F 71.1 °F 55% 30.00 in 10.0 mi South 6.9 mph - N/A   Partly Cloudy
2:54 PM 91.0 °F 98.2 °F 72.0 °F 53% 29.99 in 10.0 mi SSE 6.9 mph - N/A   Scattered Clouds
3:54 PM 88.0 °F 94.7 °F 72.0 °F 59% 29.99 in 10.0 mi SE 5.8 mph - N/A   Partly Cloudy
4:54 PM 84.0 °F 91.2 °F 73.9 °F 72% 29.99 in 10.0 mi SSW 6.9 mph - N/A   Mostly Cloudy
5:54 PM 82.0 °F 87.4 °F 73.0 °F 74% 30.00 in 10.0 mi NW 6.9 mph - N/A   Overcast
6:54 PM 78.1 °F - 71.1 °F 79% 29.97 in 10.0 mi Calm Calm - 0.01 in   Mostly Cloudy
7:54 PM 78.1 °F - 72.0 °F 81% 29.98 in 10.0 mi South 3.5 mph - N/A   Partly Cloudy
8:54 PM 75.9 °F - 70.0 °F 82% 29.96 in 10.0 mi Calm Calm - N/A   Partly Cloudy
9:54 PM 75.0 °F - 71.1 °F 87% 29.99 in 10.0 mi Calm Calm - N/A   Clear
10:54 PM 73.0 °F - 70.0 °F 90% 29.99 in 10.0 mi Calm Calm - N/A   Clear
11:54 PM 73.0 °F - 70.0 °F 90% 29.98 in 10.0 mi Calm Calm - N/A   Clear